Weather History for Columbia Owens, SC

Change the Weather History Date:

Wednesday, March 19, 2014

  Actual Average Record
Temperature  
Mean Temperature 50 °F 58 °F  
Max Temperature 58 °F 70 °F 88 °F (2012)
Min Temperature 41 °F 46 °F 34 °F (2007)
Degree Days  
Heating Degree Days 15 8  
Month to date heating degree days 268 197  
Since 1 July heating degree days 2260 2126  
Cooling Degree Days 0 0  
Month to date cooling degree days 0 0  
Year to date cooling degree days 6 3  
Moisture  
Dew Point 41 °F    
Average Humidity 87    
Maximum Humidity 93    
Minimum Humidity 62    
Precipitation  
Precipitation 0.00 in 0.12 in 0.53 in (2008)
Month to date precipitation 3.20 2.45  
Year to date precipitation 9.58 9.73  
Sea Level Pressure  
Sea Level Pressure 30.15 in    
Wind  
Wind Speed 2 mph (North)    
Max Wind Speed 9 mph    
Max Gust Speed 12 mph    
Visibility 6 miles    
Events      
T = Trace of Precipitation, MM = Missing Value Source: NWS Daily Summary

Daily Weather History Graph

Daily Weather History Graph

Search for Another Location

Airport:

Trip Planner

Search our weather history database for the weather conditions in past years. The results will help you decide how hot, cold, wet, or windy it might be!

Date:

Astronomy

Mar. 19, 2014 Rise Set
Actual Time 7:29 AM EDT 7:34 PM EDT
Civil Twilight 7:04 AM EDT 7:59 PM EDT
Nautical Twilight 6:35 AM EDT 8:28 PM EDT
Astronomical Twilight 6:05 AM EDT 8:58 PM EDT
Moon 10:42 PM EDT (3/19) 9:02 AM EDT (3/19)
Length of Visible Light 12h 55m
Length of Day
12h 05m
Waning Gibbous, 91% of the Moon is Illuminated
Mar 19
Waning Gibbous
Mar 23
Last Quarter
Mar 30
New
Apr 7
First Quarter
Apr 15
Full

Hourly Weather History & Observations

Time (EDT) Temp. Windchill Dew Point Humidity Pressure Visibility Wind Dir Wind Speed Gust Speed Precip Events Conditions
12:53 AM 42.1 °F - 39.0 °F 89% 30.16 in 7.0 mi Calm Calm - N/A   Overcast
1:53 AM 43.0 °F 40.3 °F 39.0 °F 86% 30.17 in 10.0 mi NE 4.6 mph - N/A   Overcast
2:51 AM 42.8 °F - 39.2 °F 87% 30.17 in 2.5 mi Calm Calm - N/A   Overcast
2:53 AM 42.1 °F 40.2 °F 39.9 °F 92% 30.17 in 2.5 mi Variable 3.5 mph - N/A   Overcast
3:03 AM 42.1 °F 40.2 °F 39.9 °F 92% 30.17 in 3.0 mi NNE 3.5 mph - N/A   Overcast
3:17 AM 42.1 °F - 41.0 °F 96% 30.17 in 2.5 mi Calm Calm - N/A   Overcast
3:42 AM 42.1 °F - 41.0 °F 96% 30.17 in 2.0 mi Calm Calm - N/A   Overcast
3:53 AM 42.1 °F 40.2 °F 39.9 °F 92% 30.17 in 2.5 mi Variable 3.5 mph - N/A   Overcast
4:20 AM 42.1 °F - 41.0 °F 96% 30.16 in 2.5 mi Calm Calm - N/A   Overcast
4:37 AM 42.1 °F - 39.9 °F 92% 30.16 in 4.0 mi Calm Calm - N/A   Overcast
4:53 AM 42.1 °F 40.2 °F 39.9 °F 92% 30.17 in 7.0 mi Variable 3.5 mph - N/A   Overcast
5:00 AM 42.1 °F - 39.9 °F 92% 30.17 in 6.0 mi Calm Calm - N/A   Overcast
5:21 AM 42.1 °F - 39.9 °F 92% 30.16 in 2.5 mi Calm Calm - N/A   Overcast
5:28 AM 42.1 °F - 41.0 °F 96% 30.16 in 2.5 mi Calm Calm - N/A   Overcast
5:42 AM 42.1 °F - 39.9 °F 92% 30.16 in 2.0 mi Calm Calm - N/A   Overcast
5:53 AM 42.1 °F 40.2 °F 39.9 °F 92% 30.16 in 2.5 mi Variable 3.5 mph - N/A   Overcast
6:01 AM 42.1 °F 40.2 °F 39.9 °F 92% 30.17 in 3.0 mi NNE 3.5 mph - N/A   Overcast
6:18 AM 42.1 °F - 39.9 °F 92% 30.17 in 2.5 mi Calm Calm - N/A   Overcast
6:33 AM 42.1 °F 40.2 °F 39.9 °F 92% 30.17 in 5.0 mi NE 3.5 mph - N/A   Overcast
6:51 AM 42.8 °F 41.1 °F 39.2 °F 87% 30.17 in 7.0 mi NE 3.5 mph - N/A   Overcast
6:53 AM 42.1 °F 40.2 °F 39.9 °F 92% 30.17 in 7.0 mi NE 3.5 mph - N/A   Overcast
7:06 AM 42.1 °F - 39.9 °F 92% 30.18 in 9.0 mi Calm Calm - N/A   Overcast
7:31 AM 42.1 °F 40.2 °F 39.9 °F 92% 30.19 in 5.0 mi Variable 3.5 mph - N/A   Overcast
7:53 AM 42.1 °F - 39.9 °F 92% 30.19 in 4.0 mi Calm Calm - N/A   Overcast
8:06 AM 42.1 °F - 39.9 °F 92% 30.20 in 2.5 mi Calm Calm - N/A   Overcast
8:14 AM 42.1 °F - 39.9 °F 92% 30.20 in 3.0 mi Calm Calm - N/A   Overcast
8:22 AM 42.1 °F - 39.9 °F 92% 30.20 in 3.0 mi Calm Calm - N/A   Overcast
8:53 AM 42.1 °F 39.2 °F 39.9 °F 92% 30.19 in 5.0 mi East 4.6 mph - N/A   Overcast
9:43 AM 43.0 °F - 39.9 °F 89% 30.19 in 10.0 mi Calm Calm - N/A   Overcast
9:53 AM 43.0 °F - 39.9 °F 89% 30.19 in 9.0 mi Calm Calm - N/A   Overcast
10:53 AM 44.1 °F - 39.9 °F 85% 30.20 in 10.0 mi Calm Calm - N/A   Overcast
11:37 AM 45.0 °F 43.5 °F 39.9 °F 82% 30.20 in 10.0 mi West 3.5 mph - N/A   Overcast
11:53 AM 45.0 °F 43.5 °F 39.9 °F 82% 30.19 in 10.0 mi WSW 3.5 mph - N/A   Overcast
12:53 PM 46.0 °F 43.9 °F 39.9 °F 79% 30.18 in 10.0 mi West 4.6 mph - N/A   Overcast
1:53 PM 46.9 °F - 41.0 °F 80% 30.16 in 10.0 mi WSW 5.8 mph - N/A   Overcast
2:53 PM 48.9 °F - 43.0 °F 80% 30.11 in 10.0 mi WSW 4.6 mph - N/A   Overcast
3:53 PM 51.1 °F - 44.1 °F 77% 30.09 in 10.0 mi Variable 4.6 mph - N/A   Overcast
4:53 PM 54.0 °F - 44.1 °F 69% 30.07 in 10.0 mi Variable 3.5 mph - N/A   Mostly Cloudy
5:10 PM 55.0 °F - 45.0 °F 69% 30.06 in 10.0 mi Variable 4.6 mph - N/A   Partly Cloudy
5:53 PM 57.0 °F - 45.0 °F 64% 30.04 in 10.0 mi Calm Calm - N/A   Clear
6:53 PM 57.0 °F - 46.0 °F 67% 30.05 in 10.0 mi Calm Calm - N/A   Clear
7:53 PM 53.1 °F - 46.9 °F 80% 30.06 in 10.0 mi Calm Calm - N/A   Clear
8:53 PM 51.1 °F - 46.9 °F 86% 30.04 in 10.0 mi Calm Calm - N/A   Mostly Cloudy
9:53 PM 50.0 °F - 46.0 °F 86% 30.04 in 10.0 mi Calm Calm - N/A   Clear
10:53 PM 46.9 °F - 45.0 °F 93% 30.04 in 9.0 mi Calm Calm - N/A   Clear
11:53 PM 46.0 °F - 44.1 °F 93% 30.05 in 8.0 mi Calm Calm - N/A   Clear